Showing default

NEONSAT-1, 59587

Orbit data source: Space-Track

NEONSAT-1, 59587 is a payload satellite owned by KAIST (KR) in SSO that was launched on Tue, 23 Apr 2024 UTC via an ELECTRON launch vehicle from the Rocket Lab Launch Complex (RLLC). Payload-class satellites include a variety of spacecraft equipped with specific instruments for various scientific and technological missions. These include communications satellites like Starlink; space stations such as the ISS; scientific satellites like the Hubble; Earth observation satellites from companies like Planet Labs, Umbra, and HawkEye 360; GPS; miniature CubeSats for education and research; and military/defense satellites.

Loading next visibility...
Identifier
59587, 2024-077A
Orbit
SSO
Country
Flag of KRKR / SKOR
Related business
Manufacturer
KAIST/SATRHW
Mission
Operational Civil Imaging
Bus & Motor
NEONSAT, Unknown motor
Mass
~100 kg wet, ~100 kg dry
Launch date (UTC)
2024-04-23 (2 years ago)
Launch vehicle
ELECTRON
Launch site
Rocket Lab Launch Complex (RLLC)
Object type
Payload
Rocket body
Debris
Shape & HBR
Box + Cyl + 4 Pan, 0.5 m
Radar Cross Section
0.625 m², Medium (>0.1 m² and < 1m²)

Expand to show TLE details & history
Last TLE update: 6 hours ago

TLE from 6 hours ago
0 NEONSAT-1
1 59587U 24077A   26074.60262294  .00011554  00000-0  33081-3 0  9998
2 59587  97.3523 158.5975 0009356  16.5392 343.6155 15.36052251105355
Epoch: 2026-03-15T14:27Z
TLE epoch observation values (Epoch: 2026-03-15T14:27:46.622Z)
Latitude
-0.00003°
Longitude
128.44616°
Altitude
454.774 km
Speed
7.643 km/s
True Right ascension
10h 34m 23s
True Declination
0° 00' 00"
Sunlit
Object was in full shadow at epoch
Visualization orbit readout
Latitude
Unknown
Longitude
Unknown
Altitude
Unknown
Speed
Unknown
Apparent Right ascension
Unknown
Apparent Declination
Unknown
Sunlit
N/A
Visualization observer readout
Local Sidereal Time
00:40:01
Azimuth
Unknown
Elevation
Unknown
Doppler factor
Unknown
Orbital elements
Apogee altitude
461.132 km
Perigee altitude
448.346 km
Semi-major axis
6,832.876 km
Eccentricity
0.00094
Inclination
97.3523°
RAAN
158.5975°
Arg. of periapsis
16.5392°
True anomaly
343.58522°
Mean anomaly
343.6155°
Eccentric anomaly
343.60037°
Mean motion
3.84271 °/min
Orbital period
93.68 mins
BSTAR
0.00033081
Loading maneuver chart data...
Computing Atmospheric mass density...
Loading historical data...
Loading historical data...
Loading historical data...
Loading historical data...
Loading historical data...
Loading historical data...
Loading historical data...
Other satellites on launch #77 in the year 2024 (2024-04-23 UTC)

Documentation

Showing up to 5 results
|